Dewpoint
16 16 15 14 13 12 13 11 10 8 7 7 7 7 7 6 7 6 7 7 9 10 10 9 6 4 4 -2 -2 -5 2 2 -1 3 6 8 11 11 13 10 10 11 13 16 18 18 19 19 19 20 19 19 20 20 20 21 22 22 22 22 22 21 21 22 22 23 21 20 19 20 19 19 19 18 16 16 17 18 17 17 18 18 18 18 19
14 13 13 14 13 13 13 11 14 9 8 6 7 6 7 7 8 6 7 8 8 9 9 5 3 1 -1 -0 -5 -3 -3 -0 1 3 6 7 10 10 8 7 6 8 11 15 16 15 18 18 18 17 17 17 17 17 18 21 20 20 21 19 20 20 19 21 22 21 20 18 17 17 18 17 18 18 17 16 16 17 17 17 18 16 16 17 17
11 11 13 12 14 13 11 10 10 10 9 8 7 7 8 9 8 8 8 10 8 6 5 0 -1 -1 -4 -4 -3 -3 -4 -0 -0 4 6 6 8 5 -0 0 2 5 8 14 11 9 15 13 9 7 7 10 12 14 15 16 18 18 18 18 18 19 19 20 20 21 18 18 18 16 12 12 15 14 14 14 17 18 17 15 15 14 14 17 18
11 11 11 11 12 12 13 12 10 12 10 10 8 8 8 9 8 9 8 8 8 5 5 1 1 -2 -2 -1 1 -1 -2 4 0 -0 5 4 5 -2 -4 -3 -1 2 5 7 8 10 6 1 -0 0 0 2 3 5 8 10 13 15 16 16 17 15 16 17 19 20 18 17 14 14 14 13 11 8 13 16 19 18 14 12 13 13 14 14 17
12 12 12 12 13 14 14 14 14 12 12 11 10 8 8 9 9 10 9 9 10 7 1 2 1 -1 -1 1 1 3 2 2 1 1 3 3 0 -4 -7 -5 -4 1 1 -0 6 7 2 1 2 1 2 2 2 1 1 4 9 11 10 10 10 11 11 14 16 17 18 19 17 16 15 15 14 12 15 14 15 13 11 11 14 14 12 12 14
14 13 14 14 14 15 15 15 15 14 13 13 12 11 11 11 10 10 11 11 10 8 2 2 -0 -2 -3 -0 -2 -0 1 -0 0 1 0 -2 -4 -8 -9 -10 -6 -2 -2 -1 3 6 3 2 3 2 0 -0 2 1 2 5 6 5 3 3 4 5 6 6 12 14 15 17 18 17 17 16 15 15 15 13 15 15 15 15 14 13 12 14 14
15 14 15 15 16 17 16 15 15 15 15 16 14 13 12 12 11 9 9 10 9 8 2 2 -2 -3 -3 -2 -1 -0 -1 1 -0 -1 -2 -4 -2 -12 -10 -11 -6 -6 -5 -3 -0 3 3 2 2 2 -1 -2 -1 0 0 1 1 1 2 1 0 4 3 3 5 6 8 12 15 15 16 17 17 15 14 13 12 13 13 12 12 13 13 15 14
16 15 16 17 17 17 16 15 15 15 16 17 16 14 11 9 9 8 5 5 6 3 1 -0 -1 -1 -2 -4 -1 -1 -2 0 -1 -3 -2 -3 -9 -14 -13 -12 -9 -8 -6 -5 -2 0 2 -0 -1 -0 -3 -3 -0 -1 -1 -2 0 1 -0 -1 -2 -2 -3 -1 -2 -3 -1 4 5 9 12 14 14 14 14 12 13 12 11 13 13 13 13 14 13
16 18 18 18 18 18 17 16 16 15 15 16 15 13 11 9 8 7 4 1 1 -2 -1 -3 -1 -2 -4 -5 -4 -3 -1 3 -0 -1 -4 -6 -12 -15 -14 -13 -11 -11 -8 -6 -2 -1 0 -2 -2 -4 -5 -6 -2 0 -4 -2 -2 -3 -3 -4 -3 -6 -6 -5 -2 -1 -3 -1 -1 3 6 10 12 12 12 11 11 12 9 9 9 11 12 12 12
18 18 19 19 18 18 18 17 16 16 15 14 15 13 10 8 6 5 3 -0 -1 -2 -3 -4 -3 -5 -5 -7 -6 -6 -2 -0 -2 -6 -7 -9 -13 -15 -15 -14 -13 -12 -10 -8 -5 -4 -4 -6 -4 -6 -7 -8 -2 -7 -6 -6 -6 -5 -4 -4 -3 -6 -7 -8 -4 -3 -3 -3 -3 -4 2 4 6 10 12 11 10 10 10 10 10 10 10 10 12
20 20 20 20 20 19 19 18 17 15 14 13 14 12 8 7 5 3 1 1 -2 -2 -3 -4 -6 -8 -6 -8 -7 -7 -3 -1 -4 -7 -9 -10 -14 -15 -15 -14 -12 -12 -10 -10 -8 -9 -8 -7 -10 -9 -8 -6 -7 -10 -12 -11 -10 -10 -8 -5 -8 -8 -9 -7 -5 -4 -4 -3 -3 -2 -2 -3 3 6 8 9 9 9 9 8 8 8 9 9 10
21 21 21 21 21 20 20 18 17 15 13 10 9 12 10 2 3 2 -0 0 -2 -3 -3 -5 -7 -7 -7 -9 -10 -9 -5 -3 -5 -7 -9 -11 -15 -16 -15 -15 -14 -14 -13 -13 -13 -11 -11 -12 -9 -11 -9 -11 -12 -12 -11 -11 -11 -10 -9 -9 -9 -9 -9 -7 -7 -3 -3 -1 -1 -2 -3 -3 -2 -0 3 5 5 6 7 7 8 8 8 9 10
24 24 23 22 22 21 19 18 17 15 12 9 7 9 7 -0 -2 -0 -1 -1 -3 -4 -3 -5 -8 -9 -9 -12 -11 -9 -7 -5 -5 -7 -9 -11 -15 -16 -15 -15 -14 -14 -15 -14 -14 -13 -11 -12 -12 -12 -12 -12 -10 -11 -11 -10 -11 -11 -11 -10 -10 -10 -9 -9 -8 -6 -3 -1 -1 -1 -3 -3 -3 -3 -4 -5 -4 3 0 4 6 7 7 7 8
25 25 24 23 22 21 20 18 16 13 10 7 4 4 3 -3 -6 -3 -4 -3 -3 -4 -5 -6 -8 -10 -12 -11 -11 -13 -13 -7 -7 -8 -8 -11 -14 -15 -15 -15 -15 -15 -15 -15 -14 -12 -12 -12 -11 -12 -11 -11 -11 -10 -10 -10 -10 -11 -10 -11 -11 -11 -10 -10 -9 -8 -6 -3 0 4 3 1 -0 -1 -2 -2 -2 2 -0 1 3 1 4 6 7
26 25 24 22 21 20 20 18 16 10 9 7 2 1 -0 -4 -6 -5 -6 -6 -5 -4 -6 -8 -11 -11 -12 -12 -11 -14 -12 -10 -8 -6 -8 -11 -14 -15 -15 -15 -15 -15 -15 -14 -12 -13 -13 -12 -11 -10 -11 -11 -11 -11 -10 -10 -10 -10 -10 -10 -10 -10 -10 -9 -8 -8 -7 -7 -5 -1 1 -2 -1 -1 -1 -0 -0 0 4 3 2 2 -0 1 3
26 25 24 22 21 20 19 17 13 9 5 4 0 1 0 -3 -4 -5 -7 -9 -7 -5 -8 -10 -11 -12 -13 -15 -14 -11 -11 -12 -10 -7 -8 -10 -13 -14 -14 -14 -14 -15 -14 -14 -14 -13 -12 -12 -11 -11 -11 -11 -12 -11 -11 -11 -10 -10 -10 -10 -10 -9 -10 -9 -9 -9 -9 -7 -6 -5 -1 -3 -4 -4 -4 -4 -4 -2 1 5 8 5 3 2 4
27 25 23 22 21 20 19 15 11 6 4 2 0 1 0 -2 -6 -9 -12 -12 -14 -11 -11 -11 -11 -11 -14 -15 -15 -14 -13 -14 -12 -9 -9 -10 -13 -14 -15 -15 -15 -15 -15 -14 -13 -13 -12 -12 -11 -11 -12 -12 -12 -11 -11 -11 -11 -11 -11 -10 -10 -10 -10 -10 -10 -10 -9 -8 -7 -4 -2 -2 -4 -4 -4 -4 -4 -3 -3 -3 0 7 9 7 5
26 26 25 24 22 20 17 14 11 6 4 3 1 1 -2 -5 -8 -9 -11 -15 -17 -16 -14 -12 -12 -12 -14 -14 -14 -14 -14 -14 -14 -11 -10 -11 -13 -14 -15 -15 -15 -14 -14 -13 -13 -13 -13 -10 -13 -12 -11 -11 -12 -12 -12 -12 -11 -11 -12 -12 -11 -11 -10 -10 -9 -9 -9 -8 -7 -6 -2 -1 -0 -0 -1 -2 -1 2 2 2 -1 1 5 9 10
23 24 25 23 21 19 16 13 9 5 3 2 0 -1 -4 -6 -7 -8 -10 -12 -15 -16 -15 -13 -12 -12 -13 -13 -14 -14 -15 -14 -13 -13 -12 -13 -13 -14 -14 -14 -15 -14 -13 -14 -14 -13 -13 -13 -13 -13 -12 -13 -12 -12 -12 -12 -12 -12 -12 -11 -12 -12 -12 -10 -10 -10 -9 -9 -8 -7 -6 -5 -4 -0 0 1 2 2 1 1 0 3 3 3 6
22 24 23 22 20 18 15 10 7 5 0 0 -1 -2 -5 -6 -6 -8 -9 -11 -13 -15 -14 -13 -13 -13 -14 -14 -14 -14 -14 -13 -14 -13 -14 -14 -14 -14 -14 -14 -14 -13 -13 -14 -14 -14 -13 -14 -13 -13 -13 -12 -13 -12 -12 -12 -12 -12 -12 -12 -12 -12 -11 -12 -11 -10 -10 -9 -8 -7 -7 -6 -5 -2 -1 0 -1 1 2 0 2 3 3 4 2
20 20 21 21 18 16 14 9 7 4 2 0 -2 -4 -5 -6 -8 -9 -11 -11 -12 -13 -14 -14 -14 -14 -13 -14 -14 -14 -14 -14 -14 -14 -14 -13 -13 -12 -14 -15 -14 -14 -14 -14 -14 -14 -14 -13 -13 -12 -12 -12 -13 -12 -12 -12 -12 -11 -11 -11 -11 -11 -11 -11 -10 -10 -10 -9 -8 -5 -5 -4 -5 -2 -2 -1 -1 1 2 1 2 1 3 4 3
18 17 15 15 15 15 11 8 5 2 0 -2 -3 -4 -5 -7 -9 -11 -12 -11 -11 -13 -14 -14 -14 -14 -15 -15 -14 -15 -15 -15 -14 -14 -13 -13 -14 -14 -15 -14 -14 -14 -14 -14 -14 -14 -13 -13 -13 -12 -12 -12 -12 -11 -12 -12 -12 -11 -11 -11 -11 -10 -10 -10 -10 -10 -10 -8 -7 -4 -3 -2 -2 -1 0 0 0 1 2 1 2 3 2 4 6
16 14 13 14 15 12 9 6 4 2 0 -1 -3 -4 -5 -7 -8 -11 -12 -11 -11 -12 -13 -14 -14 -15 -15 -15 -15 -15 -15 -14 -14 -14 -14 -14 -15 -15 -14 -14 -13 -13 -13 -14 -13 -14 -13 -13 -13 -12 -12 -12 -12 -13 -12 -11 -10 -10 -10 -10 -10 -10 -10 -9 -9 -9 -8 -5 -3 -2 -2 -2 -1 -0 0 0 1 1 2 2 2 3 4 4 3
15 13 11 12 12 11 9 6 4 2 -0 -2 -3 -3 -4 -6 -8 -11 -14 -13 -12 -13 -14 -14 -15 -15 -15 -15 -15 -15 -15 -14 -15 -15 -15 -15 -15 -15 -13 -13 -13 -13 -13 -13 -13 -14 -13 -13 -12 -13 -12 -12 -11 -10 -9 -7 -9 -9 -10 -9 -10 -9 -9 -8 -7 -6 -4 -3 -2 -2 -2 -1 -0 -0 0 -0 0 1 1 1 1 2 3 3 3
13 13 12 11 11 10 9 7 4 1 -0 -1 -2 -2 -4 -5 -8 -12 -15 -14 -13 -13 -14 -14 -15 -15 -15 -15 -15 -15 -15 -15 -15 -15 -15 -15 -14 -14 -13 -13 -14 -14 -14 -14 -13 -12 -13 -12 -12 -12 -12 -12 -11 -10 -10 -9 -9 -9 -10 -9 -8 -6 -5 -5 -4 -4 -1 -2 -2 -2 -1 -0 0 -0 0 -0 0 0 1 1 1 1 1 1 1
11 10 10 10 10 10 8 6 4 1 0 -0 -1 -2 -3 -5 -8 -12 -16 -15 -14 -14 -15 -14 -14 -15 -16 -16 -15 -16 -15 -16 -16 -15 -15 -14 -14 -14 -14 -14 -14 -14 -13 -12 -12 -12 -11 -11 -12 -12 -12 -12 -11 -10 -8 -9 -10 -10 -9 -6 -4 -4 -4 -3 -3 -3 -3 -2 -1 -1 -1 0 1 1 0 1 2 1 1 2 2 2 2 2 2
11 11 9 8 9 10 9 6 4 2 1 -0 -1 -2 -3 -5 -8 -12 -15 -15 -15 -14 -14 -14 -15 -15 -15 -15 -16 -16 -16 -16 -15 -15 -15 -14 -14 -14 -14 -13 -13 -13 -12 -12 -12 -12 -11 -12 -12 -11 -11 -11 -10 -10 -10 -11 -9 -8 -5 -5 -5 -5 -5 -4 -3 -3 -2 -2 -1 -0 0 1 1 1 1 1 2 2 2 3 3 3 3 3 3
11 10 8 8 8 9 9 7 4 2 1 0 -1 -2 -4 -5 -8 -12 -15 -15 -14 -14 -14 -14 -14 -15 -15 -16 -16 -16 -15 -15 -14 -14 -14 -14 -13 -14 -13 -13 -11 -12 -11 -11 -11 -11 -12 -12 -12 -12 -11 -11 -9 -8 -8 -7 -6 -6 -5 -5 -5 -5 -4 -4 -3 -2 -1 -0 0 0 1 1 2 2 2 2 3 3 3 3 4 4 4 4 3
10 8 9 8 8 7 8 7 4 3 1 0 -1 -2 -4 -6 -10 -13 -14 -15 -14 -14 -14 -14 -14 -15 -16 -16 -15 -15 -15 -14 -14 -14 -14 -13 -12 -13 -11 -11 -11 -11 -9 -11 -10 -10 -10 -11 -11 -10 -9 -8 -8 -8 -8 -7 -7 -6 -5 -5 -5 -4 -3 -3 -2 -1 0 1 2 2 2 3 3 5 5 6 6 6 3 3 4 5 5 4 4
9 8 8 8 8 7 6 3 3 3 2 0 -1 -2 -4 -7 -10 -13 -14 -15 -15 -14 -14 -14 -15 -16 -16 -16 -15 -15 -14 -14 -14 -14 -13 -13 -12 -12 -10 -8 -10 -10 -8 -8 -8 -9 -9 -10 -10 -8 -8 -9 -9 -8 -6 2 7 0 0 0 0 1 0 0 0 1 2 3 3 4 4 6 6 7 7 8 9 9 10 8 5 5 5 5 4
8 8 8 8 7 6 6 5 4 3 2 1 -1 -3 -6 -9 -11 -12 -14 -14 -14 -14 -14 -15 -15 -15 -15 -15 -15 -14 -14 -14 -14 -14 -13 -11 -11 -10 -9 -10 -10 -10 -9 -9 -8 -9 -9 -9 -9 -9 -9 -9 -9 -8 3 9 11 13 6 5 4 4 4 4 4 4 4 5 6 7 6 7 8 9 9 10 11 11 13 13 13 12 10 6 4
10 9 9 8 7 6 5 5 4 2 1 -0 -2 -5 -7 -9 -11 -12 -14 -14 -14 -14 -15 -15 -15 -15 -14 -14 -14 -14 -14 -13 -12 -12 -12 -12 -9 -9 -10 -9 -10 -10 -10 -10 -10 -10 -10 -9 -9 -9 -9 -10 -10 -2 8 10 12 13 11 5 5 4 4 4 5 5 5 6 6 7 8 9 10 9 9 9 10 12 13 13 14 14 15 17 15
11 9 9 8 6 6 6 5 3 2 1 -1 -3 -6 -8 -9 -11 -13 -14 -14 -14 -14 -15 -14 -14 -14 -14 -14 -14 -14 -14 -13 -10 -9 -9 -9 -10 -10 -10 -10 -10 -10 -10 -10 -10 -10 -10 -10 -9 -10 -10 -10 -9 3 8 10 12 11 8 5 4 3 3 3 5 6 6 6 7 7 7 8 10 12 11 12 11 11 12 13 13 13 13 15 17
11 9 8 7 7 7 6 6 4 2 -0 -3 -5 -7 -8 -9 -11 -12 -14 -14 -14 -14 -14 -14 -14 -12 -13 -13 -13 -13 -12 -9 -11 -11 -10 -10 -11 -10 -10 -10 -10 -10 -10 -10 -11 -11 -10 -10 -10 -10 -10 -10 -10 -0 8 10 12 11 9 7 2 4 5 5 5 6 5 6 6 6 6 7 8 10 10 10 11 10 11 10 10 11 11 11 13
9 8 8 7 8 8 7 5 4 2 -1 -3 -6 -8 -9 -9 -10 -12 -13 -14 -14 -14 -13 -12 -12 -12 -12 -12 -12 -12 -10 -12 -11 -10 -10 -11 -11 -10 -11 -10 -11 -11 -11 -11 -12 -11 -11 -10 -10 -10 -10 -10 -10 4 8 11 7 5 9 4 3 4 3 4 4 5 6 6 6 6 6 7 9 8 8 9 8 10 11 12 11 11 11 11 10
8 7 8 9 9 8 6 5 4 1 -2 -5 -6 -8 -9 -10 -11 -12 -13 -13 -13 -13 -12 -13 -11 -12 -12 -13 -11 -10 -10 -10 -10 -11 -11 -11 -11 -11 -11 -11 -11 -12 -11 -11 -11 -11 -11 -11 -10 -10 -10 -10 -10 6 9 11 6 8 7 2 2 2 3 3 4 5 5 5 6 6 7 8 8 7 7 11 11 11 11 11 10 11 11 10 10
9 9 9 9 8 7 5 3 2 -1 -4 -5 -7 -8 -9 -10 -11 -12 -11 -11 -11 -11 -12 -11 -11 -11 -11 -11 -10 -11 -11 -10 -10 -10 -10 -11 -11 -11 -11 -12 -12 -12 -12 -12 -12 -12 -11 -11 -11 -10 -10 -10 -10 -1 8 10 6 10 8 1 1 1 1 2 2 4 4 4 5 6 7 7 7 6 7 12 15 12 10 10 11 10 10 10 9
10 10 10 9 7 4 2 1 -1 -2 -4 -5 -7 -9 -10 -10 -10 -10 -12 -11 -12 -10 -11 -11 -11 -12 -11 -10 -9 -10 -10 -9 -9 -9 -10 -10 -11 -11 -12 -12 -12 -13 -13 -13 -12 -12 -12 -11 -11 -11 -10 -11 -10 -3 8 10 6 5 6 1 0 -1 0 1 1 3 3 4 5 7 7 6 5 5 12 15 17 14 10 10 9 9 10 9 9
11 10 9 8 6 2 1 0 -2 -3 -4 -5 -7 -8 -9 -9 -10 -10 -9 -8 -9 -8 -8 -9 -10 -11 -9 -10 -10 -10 -10 -9 -9 -9 -10 -10 -11 -11 -11 -12 -13 -13 -13 -12 -12 -12 -12 -11 -11 -11 -8 -9 -9 -8 5 9 9 8 3 1 1 -1 -1 -1 -1 -0 2 2 4 5 6 6 6 8 13 15 17 14 10 9 9 8 8 9 9
10 11 9 6 4 3 1 -0 -2 -3 -3 -5 -6 -8 -8 -8 -8 -6 -7 -7 -7 -8 -10 -11 -9 -9 -9 -9 -9 -9 -8 -8 -9 -9 -10 -11 -11 -12 -12 -12 -12 -12 -13 -13 -13 -12 -12 -12 -11 -11 -11 -10 -10 -9 -6 8 8 6 9 2 1 -1 -2 -1 -1 -1 -0 1 1 1 2 8 10 12 13 15 17 16 10 11 11 9 9 7 9
10 10 12 6 2 3 2 -0 -1 -2 -3 -6 -8 -9 -7 -6 -6 -6 -6 -7 -7 -9 -9 -10 -9 -9 -9 -10 -9 -9 -8 -8 -9 -10 -11 -12 -12 -12 -12 -12 -13 -13 -13 -13 -13 -12 -13 -12 -12 -11 -10 -9 -9 -8 -7 7 9 9 10 8 -0 -0 -1 -1 -1 -0 -1 -2 -2 -1 1 4 8 11 13 15 16 16 15 10 10 10 10 11 13
11 11 8 5 4 2 1 -0 -1 -3 -4 -6 -7 -7 -7 -5 -6 -6 -6 -6 -7 -6 -7 -8 -9 -9 -10 -9 -8 -8 -8 -9 -10 -11 -12 -12 -12 -12 -12 -13 -14 -14 -14 -14 -13 -13 -14 -13 -13 -11 -10 -10 -8 -6 -7 1 7 8 9 9 1 -0 1 0 -1 -2 -3 -3 -2 -2 -0 2 6 11 13 15 15 16 15 9 7 16 16 16 8
9 8 8 7 3 2 1 -0 -1 -3 -5 -6 -7 -6 -5 -5 -6 -6 -6 -5 -6 -6 -8 -10 -9 -9 -8 -8 -8 -8 -9 -10 -11 -11 -12 -13 -13 -13 -13 -13 -14 -14 -14 -14 -14 -14 -13 -13 -13 -13 -11 -10 -8 -9 -6 -6 0 7 8 8 8 5 8 1 -2 -3 -4 -4 -3 -1 -0 2 10 13 13 14 14 15 12 8 15 16 16 17 15
9 8 7 7 5 3 1 0 -2 -4 -5 -5 -6 -5 -4 -5 -6 -5 -5 -5 -5 -7 -8 -8 -8 -8 -8 -8 -8 -9 -9 -10 -11 -12 -13 -13 -14 -14 -14 -15 -15 -15 -15 -15 -15 -15 -15 -15 -14 -14 -13 -12 -11 -11 -7 -5 -5 4 7 7 8 8 8 1 -3 -5 -5 -4 -3 -2 -0 9 11 12 12 13 13 12 7 13 14 13 11 13 12
8 7 7 6 4 2 1 0 -2 -3 -5 -4 -3 -4 -4 -5 -5 -4 -4 -6 -6 -6 -7 -8 -8 -8 -8 -9 -9 -10 -10 -11 -11 -12 -13 -14 -14 -14 -15 -15 -15 -15 -15 -16 -16 -15 -16 -15 -15 -15 -14 -13 -12 -12 -11 -8 -5 -5 5 6 6 7 5 -1 -5 -5 -3 -4 1 8 9 9 9 10 10 10 7 5 9 10 7 7 8 6 9
8 7 6 5 4 2 1 0 -2 -3 -3 -2 -3 -3 -4 -5 -4 -4 -5 -5 -6 -7 -8 -8 -9 -9 -9 -9 -10 -11 -11 -11 -11 -12 -13 -14 -15 -15 -15 -16 -16 -16 -16 -17 -17 -16 -16 -15 -15 -15 -15 -14 -13 -12 -12 -11 -8 -7 -6 -0 4 0 -2 -2 -2 -4 -1 3 6 5 5 2 1 0 -2 -2 -1 -1 3 3 4 3 1 2 4
7 6 6 4 5 3 2 1 -1 -2 -1 -2 -3 -3 -3 -3 -4 -4 -4 -5 -6 -7 -8 -9 -10 -10 -10 -10 -11 -12 -12 -12 -13 -14 -14 -14 -15 -15 -15 -16 -16 -17 -18 -18 -18 -17 -16 -16 -16 -15 -14 -14 -13 -13 -13 -12 -12 -12 -11 -8 -7 -7 -3 -2 -5 -6 -3 -4 -5 -4 -5 -2 -2 -2 -2 -1 -1 -1 -4 -5 -4 -3 -2 -1 1
7 6 5 5 3 2 1 -0 -1 -1 -1 -1 -2 -3 -3 -3 -3 -4 -4 -6 -7 -8 -9 -10 -10 -10 -11 -11 -12 -12 -13 -14 -14 -15 -15 -16 -17 -16 -17 -18 -18 -19 -19 -19 -19 -17 -16 -16 -15 -15 -14 -14 -14 -14 -14 -13 -13 -11 -9 -7 -7 -7 -7 -7 -7 -6 -5 -5 -7 -5 -6 -9 -10 -10 -11 -10 -10 -9 -8 -6 -7 -5 -4 -2 1
6 5 6 4 3 2 0 -1 -1 -1 -1 -1 -2 -2 -3 -3 -3 -4 -5 -6 -8 -9 -10 -10 -11 -11 -12 -12 -13 -13 -14 -14 -15 -15 -15 -16 -17 -18 -18 -17 -15 -17 -18 -18 -18 -17 -15 -13 -12 -12 -13 -14 -14 -14 -13 -7 -8 -3 -6 -7 -7 -7 -6 -6 -3 -1 -5 -7 -10 -12 -12 -12 -13 -13 -13 -13 -12 -12 -10 -9 -8 -7 -6 -5 -4
6 5 4 4 3 1 -0 -1 -1 -1 -1 -2 -2 -2 -3 -3 -3 -4 -6 -8 -9 -10 -11 -11 -12 -12 -12 -13 -13 -13 -13 -14 -15 -15 -15 -15 -14 -10 -12 -16 -16 -11 -8 -4 -1 -10 -10 -9 -8 -8 -9 -11 -13 -12 -1 5 -0 -2 -3 -1 -1 0 0 -3 -1 -2 -5 -11 -13 -14 -14 -15 -15 -15 -15 -14 -14 -13 -13 -12 -11 -7 -8 -8 -6
4 4 3 2 1 0 -0 -1 -1 -1 -2 -2 -3 -3 -3 -3 -4 -5 -6 -8 -9 -11 -12 -13 -13 -13 -13 -13 -14 -14 -14 -15 -15 -15 -16 -16 -17 -17 -1 4 -1 -3 -3 1 -9 -1 -4 -2 -7 -8 -7 -5 -5 -2 1 -3 2 -2 -2 -1 -0 -0 -0 -1 -1 -6 -11 -14 -15 -16 -16 -16 -16 -16 -16 -16 -15 -15 -14 -14 -13 -12 -11 -9 -8